KB1FCH Weather Reports


time (UTC)temp
C
wind
direction
speed
KPH
gust
KPH
rain 1hr
cm
rain 24hr
cm
rain mn
cm
humidity
%
barometer
mb
20260505090538 11 0.0 0.0 0.00 0.00 0.00 94 995.3
20260505085633 11 0.0 0.0 0.00 0.00 0.00 94 995.2
20260505084614 11 0.0 0.0 0.00 0.00 0.00 94 995.3
20260505083614 11 0.0 0.0 0.00 0.00 0.00 94 995.2
20260505082616 11 0.0 0.0 0.00 0.00 0.00 93 995.0
20260505081614 11 0.0 0.0 0.00 0.00 0.00 92 994.9
20260505080615 11 0.0 0.0 0.00 0.00 0.00 91 994.9
20260505075614 12 0.0 0.0 0.00 0.00 0.00 91 994.8
20260505074614 12 0.0 0.0 0.00 0.00 0.00 90 994.7
20260505073617 12 0.0 0.0 0.00 0.00 0.00 89 994.5
20260505072615 12 0.0 0.0 0.00 0.00 0.00 89 994.6
20260505071614 12 0.0 0.0 0.00 0.00 0.00 88 994.4
20260505070614 12 0.0 0.0 0.00 0.00 0.00 87 994.2
20260505065615 12 0.0 0.0 0.00 0.00 0.00 87 994.1
20260505064614 12 0.0 0.0 0.00 0.00 0.00 86 994.0
20260505063614 12 0.0 0.0 0.00 0.00 0.00 85 994.0
20260505062614 13 0.0 0.0 0.00 0.00 0.00 84 993.9
20260505061613 13 0.0 0.0 0.00 0.00 0.00 83 993.7
20260505060614 13 0.0 0.0 0.00 0.00 0.00 82 993.7
20260505055614 13 0.0 0.0 0.00 0.00 0.00 82 993.7
20260505054614 14 0.0 0.0 0.00 0.00 0.00 82 993.7
20260505053515 14 0.0 0.0 0.00 0.00 0.00 80 993.5
20260505052614 15 0.0 0.0 0.00 0.00 0.00 79 993.5
20260505051614 15 0.0 0.0 0.00 0.00 0.00 76 993.4
20260505050634 15 0.0 0.0 0.00 0.00 0.00 77 993.2
20260505041639 17 0.0 0.0 0.00 0.00 0.00 69 992.8
20260505040535 17 0.0 0.0 0.00 0.00 0.00 65 992.7
20260505035614 18 0.0 0.0 0.00 0.00 0.00 65 992.5
20260505034614 18 0.0 0.0 0.00 0.00 0.00 62 992.3
20260505033614 18 0.0 0.0 0.00 0.00 0.00 60 992.2
20260505032615 18 0.0 0.0 0.00 0.00 0.00 67 992.0
20260505031634 19 0.0 0.0 0.00 0.00 0.00 69 992.0
20260505030614 20 0.0 0.0 0.00 0.00 0.00 66 991.7
20260505025614 20 0.0 0.0 0.00 0.00 0.00 65 991.8
20260505024520 21 0.0 0.0 0.00 0.00 0.00 63 991.6
20260505023614 21 0.0 0.0 0.00 0.00 0.00 61 991.5
20260505022614 21 0.0 0.0 0.00 0.00 0.00 60 991.6